Hourly Data Report for October 17, 2014

All times are specified in Local Standard Time (LST). Add 1 hour to adjust for Daylight Saving Time where and when it is observed.

PENTICTON A
BRITISH COLUMBIA

49°27'45.000" N
119°36'08.000" W
344.40 m
1126146
71889
YYF

Download Data

Hourly Data (October 2014)
Hourly Data Report for October 17, 2014
Temp Definition
°C
Dew Point Temp Definition
°C
Rel Hum Definition
%
Wind Dir Definition
10's deg

Wind Spd Definition
km/h
Visibility Definition
km
Stn Press Definition
kPa
Hmdx Definition


Wind Chill Definition


Weather Definition


TIME
00:00 Legend Double Dagger 11.6 5.7 67 17 12 24.1 97.47     LegendNANA
01:00 Legend Double Dagger 7.3 4.8 84 2 10 24.1 97.47     Mostly Cloudy
02:00 Legend Double Dagger 7.1 4.6 84 34 7 24.1 97.47     LegendNANA
03:00 Legend Double Dagger 6.6 4.1 84 2 7 24.1 97.42     LegendNANA
04:00 Legend Double Dagger 5.8 4.0 88 9 4 24.1 97.36     Mostly Cloudy
05:00 Legend Double Dagger 6.1 4.4 89 35 3 24.1 97.33     LegendNANA
06:00 Legend Double Dagger 5.4 3.9 90 1 5 24.1 97.29     LegendNANA
07:00 Legend Double Dagger 7.3 5.3 87 1 6 24.1 97.30     Mostly Cloudy
08:00 Legend Double Dagger 8.8 6.4 85 36 3 24.1 97.29     LegendNANA
09:00 Legend Double Dagger 10.0 6.6 79 36 3 24.1 97.26     LegendNANA
10:00 Legend Double Dagger 10.8 6.8 76 13 4 24.1 97.22     Cloudy
11:00 Legend Double Dagger 11.4 7.0 74 6 5 24.1 97.17     LegendNANA
12:00 Legend Double Dagger 12.1 6.6 69 35 8 24.1 97.08     LegendNANA
13:00 Legend Double Dagger 12.2 6.9 70 36 10 24.1 97.06     Cloudy
14:00 Legend Double Dagger 12.9 7.2 68 33 8 24.1 97.00     LegendNANA
15:00 Legend Double Dagger 13.2 7.0 66 33 4 24.1 96.98     LegendNANA
16:00 Legend Double Dagger 13.7 6.6 62 10 10 24.1 96.93     Cloudy
17:00 Legend Double Dagger 14.2 6.4 59 16 11 24.1 96.91     LegendNANA
18:00 Legend Double Dagger 13.9 6.6 61 17 21 24.1 96.92     Rain Showers
19:00 Legend Double Dagger 13.8 6.9 63 18 18 24.1 96.94     Mostly Cloudy
20:00 Legend Double Dagger 13.7 6.6 62 18 23 24.1 97.01     LegendNANA
21:00 Legend Double Dagger 13.7 6.6 62 19 31 24.1 97.03     LegendNANA
22:00 Legend Double Dagger 13.8 7.2 64 18 19 24.1 97.03     Cloudy
23:00 Legend Double Dagger 13.4 7.5 67 16 22 24.1 97.05     LegendNANA

Notes on Data Quality.

Legend

  • E = Estimated
  • M = Missing
  • NA = Not Available
  • ‡ = Partner data that is not subject to review by the National Climate Archives
Date modified: